Overview Statistics Trail Chart Weather Telemetry Raw packets
 

This is the latest recevied weather packets stored in our database for station/object WX4SGA. If no packets are shown the sender has not sent any weather packets the latest 10 day(s).

<< 46 47 48 49 50 51 52 >>
Time Temp. Humidity Pressure Rain* Wind** Luminosity Snow
1788299720 32.78° C 61% 1016.9 hPa 0 mm - 226 W/m² -
1788299415 32.78° C 60% 1017.3 hPa 0 mm - 310 W/m² -
1788299114 32.78° C 61% 1016.9 hPa 0 mm - 327 W/m² -
1788298808 32.78° C 59% 1017.3 hPa 0 mm - 340 W/m² -
1788298508 32.78° C 65% 1016.9 hPa 0 mm - 363 W/m² -
1788298202 32.78° C 63% 1016.9 hPa 0 mm - 384 W/m² -
1788297897 32.78° C 61% 1016.9 hPa 0 mm - 399 W/m² -
1788297594 32.78° C 61% 1016.9 hPa 0 mm - 376 W/m² -
1788297289 32.78° C 63% 1016.9 hPa 0 mm - 389 W/m² -
1788296985 32.22° C 64% 1016.9 hPa 0 mm - 353 W/m² -
1788296681 32.22° C 64% 1016.9 hPa 0 mm - 75 W/m² -
1788296376 32.22° C 64% 1016.9 hPa 0 mm - 100 W/m² -
1788296071 32.22° C 60% 1016.9 hPa 0 mm - 68 W/m² -
1788295766 32.78° C 62% 1017.3 hPa 0 mm - 186 W/m² -
1788295462 32.78° C 62% 1016.9 hPa 0 mm - 203 W/m² -
1788295162 32.78° C 67% 1016.9 hPa 0 mm - 560 W/m² -
1788294857 32.78° C 64% 1016.9 hPa 0 mm - 297 W/m² -
1788294552 32.22° C 62% 1016.9 hPa 0 mm - 432 W/m² -
1788294246 32.78° C 62% 1016.9 hPa 0 mm - 660 W/m² -
1788293943 32.78° C 60% 1017.3 hPa 0 mm - 668 W/m² -
1788293642 32.78° C 64% 1016.9 hPa 0 mm - 657 W/m² -
1788293336 32.78° C 61% 1017.3 hPa 0 mm - 641 W/m² -
1788293032 32.22° C 65% 1017.3 hPa 0 mm - 644 W/m² -
1788292730 32.78° C 61% 1017.3 hPa 0 mm - 653 W/m² -
1788292423 32.78° C 60% 1017.3 hPa 0 mm - 664 W/m² -

* Rain latest hour (hover to see other rain measurements)
** Current wind speed in m/s (hover to see current wind gust speed)